Location: Clinton NY
(43.0598°N, 75.3602°W)
Time: 19:39:02
(UTC-04:00)

Amateur Radio Satellites - All Passes

Search period start: 30 October 2014 19:09
Search period end: 31 October 2014 19:09
Location: Clinton NY, 43.0598°N, 75.3602°W

Satellite Date Start Highest point End Downlink Frequencies (MHz)
Time Altitude Azimuth
JAS-2 30 Oct 19:36:30 19:39:39 14° 277° (W) 19:42:59 435.800 - 435.900 CW/SSB, 435.910 FM
SO-67 30 Oct 19:56:50 19:59:48 27° 264° (W) 20:02:48 435.3500 MHz FM
KITSAT 1 30 Oct 20:14:11 20:22:18 76° 56° (ENE) 20:30:22 435.175 FM
RS-15 30 Oct 20:17:25 20:26:24 30° 104° (ESE) 20:35:16 29.354 - 29.394 USB, Beacon 29.352 USB
SO-50 30 Oct 20:17:34 20:22:26 75° 55° (NE) 20:27:19 436.795 FM
OPAL 30 Oct 20:19:12 20:21:21 13° 305° (NW) 20:23:30 ?
HO-68 30 Oct 20:20:52 20:27:38 48° 65° (ENE) 20:34:28 435.675 MHz FM
UKube-1 30 Oct 20:31:36 20:33:43 14° 61° (ENE) 20:35:51 145.840 MHz, 145.915 MHz
STRAND 1 30 Oct 20:33:14 20:38:14 52° 289° (WNW) 20:43:11 ?
Oscar 11 30 Oct 21:05:36 21:09:11 26° 68° (ENE) 21:12:46 145.825 FM, Beacon 2401.500 USB
UOSAT-12 30 Oct 21:06:24 21:10:31 28° 44° (NE) 21:14:33 437.025 FM, 437.400 FM
FUNcube-1 30 Oct 21:20:55 21:23:56 18° 64° (ENE) 21:26:54 145.950 - 145.970 MHz USB
Oscar 10/S400 30 Oct 21:42:20 22:28:29 44° 208° (SSW) 05:02:04 145.825 - 145.975 CW/USB, Beacon 145.810 USB
SO-50 30 Oct 21:59:47 22:02:25 15° 252° (WSW) 22:05:02 436.795 FM
UKube-1 30 Oct 22:05:02 22:09:22 66° 258° (WSW) 22:13:44 145.840 MHz, 145.915 MHz
HO-68 30 Oct 22:09:03 22:15:29 35° 263° (W) 22:21:58 435.675 MHz FM
KITSAT 1 30 Oct 22:10:44 22:16:53 25° 256° (WSW) 22:23:01 435.175 FM
ZACube-1 30 Oct 22:12:22 22:16:49 58° 74° (ENE) 22:21:12 437.345 MHz
RS-15 30 Oct 22:26:40 22:37:39 76° 306° (NW) 22:48:40 29.354 - 29.394 USB, Beacon 29.352 USB
MaSat-1 30 Oct 22:30:27 22:34:19 60° 114° (ESE) 22:37:49 437.345 MHz
Oscar 11 30 Oct 22:41:29 22:45:15 29° 264° (W) 22:49:03 145.825 FM, Beacon 2401.500 USB
UOSAT-12 30 Oct 22:46:21 22:50:48 42° 243° (WSW) 22:55:10 437.025 FM, 437.400 FM
FUNcube-1 30 Oct 22:55:33 22:59:57 49° 261° (W) 23:04:17 145.950 - 145.970 MHz USB
ZACube-1 30 Oct 23:51:07 23:53:33 14° 269° (W) 23:55:57 437.345 MHz
MaSat-1 31 Oct 00:08:22 00:09:58 12° 309° (NW) 00:11:30 437.345 MHz
RS-15 31 Oct 00:42:55 00:52:09 30° 335° (NNW) 01:01:31 29.354 - 29.394 USB, Beacon 29.352 USB
Oscar 19 31 Oct 01:25:41 01:28:42 16° 90° (E) 01:31:42 437.125 CW, 437.150 USB
JAS-1B 31 Oct 01:55:09 02:01:44 37° 98° (E) 02:09:24 435.800 - 435.900 CW/SSB
AO-27 31 Oct 02:00:51 02:03:25 14° 89° (E) 02:05:58 436.795 MHz FM
Oscar 16 31 Oct 02:11:16 02:16:08 42° 98° (E) 02:20:58 437.025 USB, Beacon 2401.1428
Sapphire 31 Oct 02:24:02 02:29:05 42° 112° (ESE) 02:34:11 437.095 MHz 1200 baud AX-25 AFSK
Uribyol 2 31 Oct 02:43:14 02:48:00 36° 97° (E) 02:52:44 436.500 FM
PCSat 31 Oct 02:45:23 02:50:45 69° 117° (ESE) 02:56:10 145.825 MHz
AO-Echo 31 Oct 02:50:50 02:56:05 54° 100° (E) 03:01:14 ?
ITAMSAT 1 31 Oct 02:50:58 02:55:52 39° 98° (E) 03:00:43 435.822 SSB
RS-15 31 Oct 03:00:48 03:09:20 24° 11° (N) 03:18:01 29.354 - 29.394 USB, Beacon 29.352 USB
Oscar 19 31 Oct 03:03:25 03:08:30 66° 287° (WNW) 03:13:34 437.125 CW, 437.150 USB
AO-27 31 Oct 03:38:16 03:43:30 77° 286° (WNW) 03:48:42 436.795 MHz FM
JAS-1B 31 Oct 03:45:45 03:52:22 48° 292° (WNW) 04:00:13 435.800 - 435.900 CW/SSB
Gurwin Techsat 1B 31 Oct 03:50:36 03:55:57 77° 103° (ESE) 04:01:15 435.225 FM
Oscar 16 31 Oct 03:51:07 03:55:15 25° 296° (WNW) 03:59:22 437.025 USB, Beacon 2401.1428
TMSAT-1 31 Oct 03:57:21 04:02:39 66° 102° (ESE) 04:07:54 436.925 FM
Sapphire 31 Oct 04:07:48 04:12:37 32° 311° (NW) 04:17:29 437.095 MHz 1200 baud AX-25 AFSK
OPAL 31 Oct 04:16:39 04:20:41 24° 62° (ENE) 04:24:41 ?
Uribyol 2 31 Oct 04:22:52 04:27:22 30° 294° (WNW) 04:31:50 436.500 FM
AO-Echo 31 Oct 04:30:26 04:34:25 22° 297° (WNW) 04:38:23 ?
PCSat 31 Oct 04:30:31 04:34:41 22° 317° (NW) 04:38:54 145.825 MHz
ITAMSAT 1 31 Oct 04:30:47 04:35:10 28° 295° (WNW) 04:39:31 435.822 SSB
Uosat F 31 Oct 04:42:25 04:46:33 25° 94° (E) 04:50:38 435.120 FM
JAS-2 31 Oct 04:56:49 05:01:45 18° 85° (E) 05:06:33 435.800 - 435.900 CW/SSB, 435.910 FM
AO-7 31 Oct 04:56:58 05:04:59 49° 101° (E) 05:12:58 29.400 - 29.500 MHz
Saudisat 1A 31 Oct 05:08:44 05:11:11 15° 110° (ESE) 05:13:38 436.775 MHz
RS-15 31 Oct 05:14:32 05:25:15 50° 43° (NE) 05:36:20 29.354 - 29.394 USB, Beacon 29.352 USB
AO-27 31 Oct 05:20:36 05:22:07 11° 304° (NW) 05:23:38 436.795 MHz FM
Gurwin Techsat 1B 31 Oct 05:32:09 05:35:16 16° 301° (WNW) 05:38:23 435.225 FM
TMSAT-1 31 Oct 05:38:31 05:42:01 18° 299° (WNW) 05:45:31 436.925 FM
OPAL 31 Oct 05:54:24 05:59:18 46° 258° (WSW) 06:04:09 ?
STRAND 1 31 Oct 06:11:36 06:16:08 33° 67° (ENE) 06:20:42 ?
Hamsat 31 Oct 06:11:41 06:15:20 27° 95° (E) 06:18:58 145.90 MHz
Uosat F 31 Oct 06:20:44 06:25:27 41° 291° (WNW) 06:30:09 435.120 FM
JAS-2 31 Oct 06:39:50 06:47:46 85° 104° (ESE) 06:55:26 435.800 - 435.900 CW/SSB, 435.910 FM
Saudisat 1A 31 Oct 06:45:53 06:50:14 63° 307° (NW) 06:54:37 436.775 MHz
AO-7 31 Oct 06:50:01 06:57:37 42° 300° (WNW) 07:05:15 29.400 - 29.500 MHz
SO-67 31 Oct 07:19:17 07:21:40 17° 93° (E) 07:24:01 435.3500 MHz FM
RS-15 31 Oct 07:27:06 07:37:54 57° 246° (WSW) 07:49:10 29.354 - 29.394 USB, Beacon 29.352 USB
Hamsat 31 Oct 07:47:40 07:51:12 26° 292° (WNW) 07:54:45 145.90 MHz
STRAND 1 31 Oct 07:50:42 07:55:16 32° 264° (W) 07:59:54 ?
MaSat-1 31 Oct 08:14:20 08:16:43 41° 247° (WSW) 08:18:58 437.345 MHz
JAS-2 31 Oct 08:26:00 08:31:51 24° 303° (WNW) 08:37:39 435.800 - 435.900 CW/SSB, 435.910 FM
Saudisat 1A 31 Oct 08:28:58 08:30:41 12° 327° (NNW) 08:32:25 436.775 MHz
AO-7 31 Oct 08:47:32 08:48:10 10° 323° (NW) 08:48:48 29.400 - 29.500 MHz
SO-67 31 Oct 08:51:42 08:54:39 27° 289° (WNW) 08:57:35 435.3500 MHz FM
Sapphire 31 Oct 09:30:15 09:31:04 10° 30° (NNE) 09:31:53 437.095 MHz 1200 baud AX-25 AFSK
HO-68 31 Oct 09:34:45 09:41:36 44° 99° (E) 09:48:23 435.675 MHz FM
RS-15 31 Oct 09:46:07 09:47:41 10° 267° (W) 09:49:17 29.354 - 29.394 USB, Beacon 29.352 USB
PCSat 31 Oct 09:50:27 09:53:22 14° 36° (NE) 09:56:16 145.825 MHz
UKube-1 31 Oct 09:53:04 09:56:14 19° 93° (E) 09:59:22 145.840 MHz, 145.915 MHz
Oscar 11 31 Oct 10:27:29 10:31:38 44° 99° (E) 10:35:45 145.825 FM, Beacon 2401.500 USB
SO-50 31 Oct 10:34:50 10:37:56 19° 110° (ESE) 10:41:06 436.795 FM
ISS 31 Oct 10:40:50 10:44:06 59° 143° (SE) 10:47:23 145.800 FM
KITSAT 1 31 Oct 10:43:24 10:50:58 47° 112° (ESE) 10:58:33 435.175 FM
FUNcube-1 31 Oct 10:44:02 10:47:39 27° 95° (E) 10:51:12 145.950 - 145.970 MHz USB
Sapphire 31 Oct 11:10:49 11:16:00 43° 52° (NE) 11:21:09 437.095 MHz 1200 baud AX-25 AFSK
HO-68 31 Oct 11:22:40 11:29:11 39° 298° (WNW) 11:35:41 435.675 MHz FM
UKube-1 31 Oct 11:28:28 11:32:34 40° 290° (WNW) 11:36:38 145.840 MHz, 145.915 MHz
PCSat 31 Oct 11:32:25 11:37:51 67° 57° (ENE) 11:43:14 145.825 MHz
ZACube-1 31 Oct 11:36:59 11:41:11 74° 285° (WNW) 11:45:19 437.345 MHz
Oscar 11 31 Oct 12:04:33 12:07:29 18° 295° (WNW) 12:10:24 145.825 FM, Beacon 2401.500 USB
SO-50 31 Oct 12:13:38 12:18:03 53° 309° (NW) 12:22:38 436.795 FM
ISS 31 Oct 12:18:03 12:20:59 28° 341° (NNW) 12:23:56 145.800 FM
FUNcube-1 31 Oct 12:20:29 12:23:57 26° 292° (WNW) 12:27:23 145.950 - 145.970 MHz USB
AO-Echo 31 Oct 12:30:40 12:31:43 11° 56° (NE) 12:32:46 ?
KITSAT 1 31 Oct 12:38:41 12:46:23 46° 312° (NW) 12:54:08 435.175 FM
Oscar 19 31 Oct 12:43:08 12:47:20 26° 65° (ENE) 12:51:32 437.125 CW, 437.150 USB
JAS-1B 31 Oct 12:44:06 12:48:47 27° 63° (ENE) 12:53:32 435.800 - 435.900 CW/SSB
Sapphire 31 Oct 12:54:35 12:59:15 30° 251° (WSW) 13:03:53 437.095 MHz 1200 baud AX-25 AFSK
UOSAT-12 31 Oct 12:57:56 13:02:21 46° 118° (ESE) 13:06:52 437.025 FM, 437.400 FM
PCSat 31 Oct 13:17:07 13:20:41 18° 255° (WSW) 13:24:14 145.825 MHz
AO-27 31 Oct 13:19:18 13:23:27 25° 64° (ENE) 13:27:37 436.795 MHz FM
Oscar 16 31 Oct 13:29:04 13:34:10 69° 73° (ENE) 13:39:18 437.025 USB, Beacon 2401.1428
Saudisat 1A 31 Oct 13:32:48 13:36:07 20° 41° (NE) 13:39:26 436.775 MHz
Gurwin Techsat 1B 31 Oct 13:35:01 13:38:37 19° 61° (ENE) 13:42:12 435.225 FM
TMSAT-1 31 Oct 13:41:57 13:45:07 16° 59° (ENE) 13:48:17 436.925 FM
ISS 31 Oct 13:56:01 13:58:26 18° 1° (N) 14:00:52 145.800 FM
SO-50 31 Oct 13:58:05 13:59:43 12° 330° (NNW) 14:01:21 436.795 FM
Uribyol 2 31 Oct 14:01:52 14:06:59 60° 72° (ENE) 14:12:09 436.500 FM
AO-Echo 31 Oct 14:04:32 14:09:30 75° 74° (ENE) 14:14:41 ?
AO-7 31 Oct 14:08:37 14:13:34 18° 46° (NE) 14:18:32 29.400 - 29.500 MHz
ITAMSAT 1 31 Oct 14:09:46 14:14:56 66° 73° (ENE) 14:20:08 435.822 SSB
Oscar 19 31 Oct 14:21:38 14:26:28 41° 262° (W) 14:31:19 437.125 CW, 437.150 USB
JAS-1B 31 Oct 14:33:56 14:39:20 41° 262° (W) 14:44:43 435.800 - 435.900 CW/SSB
UOSAT-12 31 Oct 14:38:46 14:42:42 26° 317° (NW) 14:46:43 437.025 FM, 437.400 FM
KITSAT 1 31 Oct 14:39:08 14:44:09 17° 339° (NNW) 14:49:10 435.175 FM
AO-27 31 Oct 14:57:41 15:02:40 46° 261° (W) 15:07:43 436.795 MHz FM
Oscar 16 31 Oct 15:11:07 15:14:01 15° 270° (W) 15:16:55 437.025 USB, Beacon 2401.1428
Saudisat 1A 31 Oct 15:11:41 15:16:03 60° 240° (WSW) 15:20:24 436.775 MHz
Gurwin Techsat 1B 31 Oct 15:12:48 15:18:03 64° 258° (WSW) 15:23:22 435.225 FM
TMSAT-1 31 Oct 15:19:06 15:24:24 75° 257° (WSW) 15:29:44 436.925 FM
ISS 31 Oct 15:32:48 15:35:51 32° 21° (NNE) 15:38:54 145.800 FM
Uribyol 2 31 Oct 15:43:22 15:46:51 18° 269° (W) 15:50:21 436.500 FM
AO-Echo 31 Oct 15:46:28 15:48:53 13° 272° (W) 15:51:20 ?
ITAMSAT 1 31 Oct 15:51:45 15:54:53 16° 270° (W) 15:58:03 435.822 SSB
Uosat F 31 Oct 15:56:25 16:01:03 38° 68° (ENE) 16:05:42 435.120 FM
AO-7 31 Oct 15:56:44 16:04:55 70° 67° (ENE) 16:13:09 29.400 - 29.500 MHz
KITSAT 1 31 Oct 16:39:39 16:43:36 14° 10° (N) 16:47:32 435.175 FM
JAS-2 31 Oct 16:52:44 16:58:40 42° 65° (ENE) 17:05:20 435.800 - 435.900 CW/SSB, 435.910 FM
Hamsat 31 Oct 17:06:16 17:09:33 23° 67° (ENE) 17:12:50 145.90 MHz
ISS 31 Oct 17:09:25 17:12:38 45° 219° (SW) 17:15:50 145.800 FM
Uosat F 31 Oct 17:35:43 17:39:55 26° 265° (W) 17:44:09 435.120 FM
AO-7 31 Oct 17:51:40 17:58:20 27° 266° (W) 18:05:03 29.400 - 29.500 MHz
OPAL 31 Oct 18:03:11 18:07:52 41° 101° (E) 18:12:31 ?
KITSAT 1 31 Oct 18:35:10 18:42:10 31° 39° (NE) 18:49:06 435.175 FM
JAS-2 31 Oct 18:37:59 18:43:45 37° 266° (W) 18:50:15 435.800 - 435.900 CW/SSB, 435.910 FM
Hamsat 31 Oct 18:41:36 18:45:21 31° 264° (W) 18:49:06 145.90 MHz
